[[{"header":{"parameterUnit":"m.s-1","parameterCategory":1,"la1":30.2991,"la2":30.254,"lo1":-89.0895,"lo2":-89.0444,"dy":0.0017,"dx":0.0017,"nx":28,"ny":28,"refTime":"2026-01-31T09:00:00:Z","depth":0,"parameterNumber":2,"parameterNumberName":"U-component_of_WINDS"},"data":[0,0,0,0,0,0,0,0,0,0,0,0,0,0,0,0,0,0,0,0,0,0,0,0,0,0,0,0,0,0,0,0,0,0,0,0,0,0,0,0,0,0,0,0,0,0,0,0,0,0,0,0,0,0,0,0,0,0,4.0201,4.0202,0,4.025,4.025,4.0251,4.0211,4.0209,4.0208,4.0206,4.0253,4.0256,4.0258,0,0,0,0,0,0,0,0,0,0,0,0,0,4.0074,4.0076,4.0201,4.0202,4.0203,4.025,4.025,4.0251,4.0211,4.0209,4.0207,4.0205,4.0252,4.0255,4.0259,0,0,0,0,0,0,0,0,0,0,0,0,0,4.0126,4.0077,4.0201,4.0189,4.0188,4.0249,4.025,4.0251,4.0212,4.0209,4.0207,4.0204,4.0251,4.0255,4.0259,4.0335,0,0,4.0272,4.0274,0,0,0,0,0,0,0,0,4.0123,4.0131,4.019,4.019,4.0189,4.0222,4.0222,4.0279,4.0212,4.0203,4.0206,4.0203,4.0244,4.0249,4.0263,4.0337,4.0339,4.0272,4.0275,4.0277,4.0278,0,0,0,0,0,0,0,4.012,4.0129,4.022,4.0191,4.019,4.018,4.0185,4.0233,4.0237,4.0203,4.02,4.0207,4.0244,4.026,4.0264,4.034,4.0272,4.0276,4.0279,4.028,4.048,4.0482,0,0,0,0,0,0,4.0118,4.0126,4.0219,4.0222,4.0149,4.0184,4.019,4.0214,4.0236,4.0237,4.0209,4.0205,4.0254,4.0259,4.0266,4.0356,4.0277,4.0281,4.0283,4.0477,4.048,4.0483,0,0,0,0,0,0,4.0115,4.0126,4.0217,4.0173,4.0184,4.0189,4.0217,4.0216,4.0232,4.0241,4.0241,4.0224,4.0252,4.026,4.0319,4.0357,4.0282,4.0286,4.0474,4.0478,4.0482,4.0538,0,0,0,0,0,0,4.0111,4.0126,4.0154,4.0174,4.0186,4.0269,4.0219,4.0219,4.0239,4.0234,4.0255,4.0256,4.025,4.0313,4.0323,4.0362,4.029,4.047,4.0476,4.048,4.0533,4.0544,4.0553,0,0,0,0,0,4.0107,4.0168,4.0156,4.0168,4.0223,4.0272,4.0278,4.0271,4.0243,4.0272,4.0278,4.0256,4.0352,4.0319,4.033,4.0371,4.0468,4.0474,4.048,4.0528,4.0542,4.0553,0,0,0,0,0,0,4.0151,4.017,4.0157,4.0226,4.0248,4.0265,4.0301,4.0286,4.0315,4.0309,4.0298,4.0303,4.0365,4.0374,4.0337,4.0446,4.0405,4.0414,4.0438,4.0451,4.0461,4.0457,4.0293,0,0,0,0,0,4.0169,4.0207,4.0222,4.0281,4.0293,4.0295,4.0316,4.0309,4.0331,4.0339,4.0349,4.0371,4.0406,4.0429,4.0462,4.0535,4.0539,4.0569,4.0579,4.0587,4.0594,4.0634,4.0648,4.0504,4.0504,4.0504,0,0,4.0205,4.0221,4.0245,4.029,4.0306,4.0346,4.0303,4.0347,4.0376,4.0346,4.0402,4.0411,4.0433,4.05,4.053,4.0509,4.0635,4.0595,4.0602,4.0604,4.0642,4.0656,4.0668,4.0508,4.0507,4.0507,0,0,4.0293,4.0308,4.036,4.0377,4.0403,4.0404,4.0417,4.0437,4.0442,4.0499,4.0477,4.0512,4.0573,4.059,4.0607,4.0704,4.0685,4.0715,4.0768,4.0807,4.0818,4.0828,4.0863,4.0875,4.0723,4.0723,4.0723,0,4.0335,4.0394,4.0388,4.0434,4.0454,4.0431,4.0483,4.05,4.0534,4.0549,4.0526,4.0603,4.0617,4.0687,4.0711,4.0726,4.074,4.0712,4.0817,4.0827,4.0836,4.0869,4.0882,4.0727,4.0726,4.0726,4.0726,0,4.0445,4.0487,4.0526,4.0561,4.0586,4.0635,4.0636,4.0662,4.0654,4.0658,4.0717,4.0733,4.0769,4.0786,4.0777,4.0856,4.0842,4.0819,4.0777,4.0854,4.0884,4.0897,4.0732,4.073,4.0729,4.0728,0,0,4.0558,4.0592,4.0606,4.0622,4.065,4.0682,4.073,4.0767,4.079,4.0815,4.0855,4.0908,4.0887,4.0907,4.09,4.0935,4.1011,4.0907,4.0907,4.0925,4.1099,4.1115,4.113,4.0999,4.1002,4.1004,4.1097,0,4.0647,4.0731,4.0728,4.0807,4.0846,4.0825,4.0867,4.0889,4.0895,4.0928,4.0935,4.0973,4.0942,4.0954,4.0987,4.0995,4.1046,4.0988,4.1036,4.1037,4.1029,4.1146,4.1163,4.125,4.1108,4.111,4.1112,0,4.076,4.0791,4.0874,4.0897,4.0913,4.0951,4.0985,4.1018,4.1043,4.1045,4.1068,4.1057,4.1106,4.1064,4.1131,4.1093,4.1112,4.1119,4.1122,4.1125,4.1078,4.1151,4.1278,4.129,4.1131,4.1129,4.1128,0,4.0834,4.0896,4.0954,4.0969,4.0998,4.1025,4.1038,4.106,4.1083,4.1113,4.1128,4.1163,4.1182,4.1209,4.1208,4.1178,4.1276,4.1234,4.1279,4.1279,4.1299,4.1297,4.1429,4.1314,4.1313,4.1313,4.1313,0,4.0932,4.0983,4.0988,4.1024,4.1081,4.1078,4.1134,4.1145,4.1165,4.1202,4.1187,4.1222,4.1218,4.1254,4.1254,4.1309,4.1318,4.1321,4.132,4.1322,4.1321,4.1333,4.1326,4.1317,4.1316,4.1315,4.1315,0,4.1023,4.1029,4.109,4.1114,4.1121,4.1162,4.1181,4.1215,4.1221,4.1268,4.1279,4.1288,4.1329,4.1331,4.1378,4.1378,4.1446,4.1439,4.1438,4.1436,4.148,4.1476,4.1623,4.1642,4.1516,4.1517,4.1518,0,4.1085,4.1124,4.1152,4.1177,4.1192,4.1231,4.1255,4.1253,4.1279,4.1311,4.1341,4.1381,4.1413,4.148,4.149,4.1526,4.1519,4.1569,4.1524,4.1525,4.1519,4.1516,4.152,4.1577,4.1578,4.1579,4.158,0,4.1193,4.1194,4.123,4.1267,4.1296,4.1325,4.1352,4.1372,4.1374,4.1404,4.1446,4.1471,4.1521,4.1561,4.1597,4.161,4.1595,4.1595,4.1606,4.1608,4.1605,4.1607,4.146,4.159,4.1589,4.1589,4.1588,4.1588,4.1271,4.1305,4.1331,4.1371,4.1392,4.1418,4.1451,4.1462,4.1498,4.1538,4.1536,4.1583,4.1608,4.1655,4.1671,4.1708,4.1691,4.1709,4.1713,4.1717,4.1721,4.1601,4.1715,4.1714,4.1714,4.1714,4.1714,0,4.1378,4.1394,4.1431,4.147,4.1502,4.1488,4.1517,4.1545,4.1587,4.1612,4.1644,4.1694,4.1733,4.1748,4.1786,4.1813,4.1808,4.1823,4.182,4.1824,4.1734,4.172,4.1827,4.1827,4.1827,4.1827,4.1827,4.1827,4.1437,4.1495,4.15,4.1568,4.1583,4.163,4.1649,4.1673,4.1693,4.1749,4.1782,4.1792,4.1813,4.1853,4.1889,4.1892,4.1907,4.1925,4.1925,4.1841,4.183,4.1819,4.1805,4.1928,4.1929,4.2011,4.2012,4.2013]},{"header":{"parameterUnit":"m.s-1","parameterCategory":1,"la1":30.2991,"la2":30.254,"lo1":-89.0895,"lo2":-89.0444,"dy":0.0017,"dx":0.0017,"nx":28,"ny":28,"refTime":"2026-01-31T09:00:00:Z","depth":0,"parameterNumber":3,"parameterNumberName":"V-component_of_WINDS"},"data":[0,0,0,0,0,0,0,0,0,0,0,0,0,0,0,0,0,0,0,0,0,0,0,0,0,0,0,0,0,0,0,0,0,0,0,0,0,0,0,0,0,0,0,0,0,0,0,0,0,0,0,0,0,0,0,0,0,0,-8.668,-8.6683,0,-8.6922,-8.6925,-8.6928,-8.6861,-8.6856,-8.6852,-8.6847,-8.7092,-8.7103,-8.7114,0,0,0,0,0,0,0,0,0,0,0,0,0,-8.6158,-8.6168,-8.668,-8.6683,-8.6686,-8.6922,-8.6925,-8.6929,-8.6862,-8.6856,-8.685,-8.6845,-8.7088,-8.7101,-8.7115,0,0,0,0,0,0,0,0,0,0,0,0,0,-8.6391,-8.6172,-8.668,-8.6682,-8.6684,-8.6921,-8.6925,-8.693,-8.6863,-8.6856,-8.6849,-8.6842,-8.7084,-8.71,-8.7117,-8.7366,0,0,-8.7167,-8.7175,0,0,0,0,0,0,0,0,-8.6378,-8.641,-8.6678,-8.6682,-8.6685,-8.6854,-8.6831,-8.7076,-8.6865,-8.6795,-8.6847,-8.6838,-8.7019,-8.704,-8.7102,-8.7377,-8.7388,-8.7169,-8.7179,-8.7186,-8.7191,0,0,0,0,0,0,0,-8.6362,-8.64,-8.6776,-8.6682,-8.6687,-8.667,-8.6695,-8.6877,-8.6945,-8.6801,-8.6797,-8.6826,-8.7019,-8.7086,-8.7107,-8.7391,-8.7168,-8.7183,-8.7193,-8.72,-8.7884,-8.7892,0,0,0,0,0,0,-8.6344,-8.6387,-8.6768,-8.6783,-8.6511,-8.6685,-8.6713,-8.6807,-8.6943,-8.6957,-8.6832,-8.6822,-8.7061,-8.7088,-8.7115,-8.7417,-8.7186,-8.7202,-8.7211,-8.7876,-8.7886,-8.7895,0,0,0,0,0,0,-8.6333,-8.6378,-8.6758,-8.6584,-8.6631,-8.6702,-8.6808,-8.6816,-8.6883,-8.6967,-8.6978,-8.6888,-8.7056,-8.7092,-8.7304,-8.7424,-8.7209,-8.7224,-8.7866,-8.7879,-8.7891,-8.8021,0,0,0,0,0,0,-8.6318,-8.6375,-8.6471,-8.6587,-8.6641,-8.6945,-8.6816,-8.6826,-8.6912,-8.6901,-8.7022,-8.7035,-8.7053,-8.728,-8.7321,-8.7443,-8.7237,-8.7856,-8.7872,-8.7887,-8.8006,-8.8036,-8.8062,0,0,0,0,0,-8.63,-8.6497,-8.6476,-8.6522,-8.6762,-8.6952,-8.6982,-8.7,-8.6922,-8.7018,-8.7073,-8.7031,-8.7404,-8.7302,-8.7348,-8.7477,-8.7849,-8.7868,-8.7885,-8.7994,-8.803,-8.8061,0,0,0,0,0,0,-8.6392,-8.6512,-8.649,-8.6731,-8.6832,-8.694,-8.7063,-8.7038,-8.7163,-8.7147,-8.7163,-8.7191,-8.7409,-8.7464,-8.7348,-8.7725,-8.7615,-8.7643,-8.7682,-8.7717,-8.7744,-8.7727,-8.7251,0,0,0,0,0,-8.6441,-8.6585,-8.6682,-8.6885,-8.6937,-8.6992,-8.7075,-8.708,-8.7184,-8.7226,-8.7296,-8.7398,-8.7539,-8.7631,-8.7764,-8.8014,-8.8039,-8.8125,-8.8153,-8.8175,-8.82,-8.8336,-8.8376,-8.7956,-8.7955,-8.7955,0,0,-8.6542,-8.6626,-8.6716,-8.6906,-8.6985,-8.7134,-8.7028,-8.719,-8.73,-8.7251,-8.7456,-8.7511,-8.7626,-8.7859,-8.7964,-8.7911,-8.8322,-8.8199,-8.8216,-8.8229,-8.836,-8.8399,-8.8435,-8.7968,-8.7966,-8.7964,0,0,-8.6804,-8.6881,-8.706,-8.7141,-8.7262,-8.7297,-8.734,-8.7453,-8.7488,-8.7694,-8.7661,-8.7792,-8.8033,-8.8117,-8.8191,-8.8486,-8.8453,-8.8529,-8.8674,-8.8807,-8.884,-8.887,-8.8975,-8.9013,-8.8553,-8.8553,-8.8553,0,-8.6914,-8.7139,-8.7154,-8.732,-8.7405,-8.7368,-8.7548,-8.7626,-8.7784,-8.7844,-8.7782,-8.8085,-8.816,-8.8412,-8.8484,-8.8545,-8.8594,-8.8515,-8.8834,-8.8864,-8.8892,-8.8993,-8.9032,-8.8562,-8.8561,-8.856,-8.8559,0,-8.7269,-8.7425,-8.7554,-8.771,-8.7809,-8.7981,-8.8023,-8.8121,-8.8118,-8.8159,-8.837,-8.8459,-8.861,-8.867,-8.8668,-8.8923,-8.8886,-8.883,-8.8719,-8.894,-8.9035,-8.9074,-8.8574,-8.8571,-8.8568,-8.8566,0,0,-8.7596,-8.7758,-8.7805,-8.7876,-8.8007,-8.8127,-8.8298,-8.8447,-8.8532,-8.8642,-8.8786,-8.8991,-8.894,-8.9025,-8.9031,-8.9148,-8.9377,-8.9077,-8.908,-8.913,-8.9664,-8.9706,-8.9751,-8.9355,-8.9363,-8.9369,-8.9654,0,-8.7869,-8.8171,-8.819,-8.8463,-8.8607,-8.8574,-8.8723,-8.8819,-8.8863,-8.8991,-8.9038,-8.9184,-8.9105,-8.9156,-8.927,-8.9325,-8.9484,-8.9304,-8.9489,-8.9495,-8.9462,-8.98,-8.9846,-9.0111,-8.9691,-8.9698,-8.9702,0,-8.8228,-8.8351,-8.8639,-8.8751,-8.8812,-8.8945,-8.9084,-8.9208,-8.9316,-8.9339,-8.9435,-8.9425,-8.96,-8.9483,-8.9723,-8.9601,-8.9677,-8.9716,-8.9726,-8.9745,-8.9613,-8.9828,-9.0196,-9.0236,-8.9761,-8.9756,-8.9752,0,-8.8439,-8.8676,-8.8879,-8.894,-8.9075,-8.917,-8.923,-8.9332,-8.9421,-8.9542,-8.9599,-8.9739,-8.9815,-8.9923,-8.9952,-8.9864,-9.0193,-9.0077,-9.0217,-9.0216,-9.0288,-9.0283,-9.0673,-9.0336,-9.0336,-9.0335,-9.0334,0,-8.8743,-8.892,-8.8975,-8.9101,-8.9298,-8.9319,-8.9514,-8.9568,-8.9659,-8.9793,-8.9773,-8.9899,-8.9929,-9.0061,-9.0084,-9.028,-9.0315,-9.0338,-9.0343,-9.0341,-9.0338,-9.0392,-9.0374,-9.0345,-9.0343,-9.0341,-9.0339,0,-8.9011,-8.9056,-8.9275,-8.9385,-8.9417,-8.9558,-8.9652,-8.9772,-8.9813,-8.9984,-9.0025,-9.0089,-9.0244,-9.0282,-9.0467,-9.0482,-9.0714,-9.0701,-9.0679,-9.0678,-9.0815,-9.0802,-9.1254,-9.1315,-9.0937,-9.0941,-9.0944,0,-8.9203,-8.9339,-8.9464,-8.9553,-8.9619,-8.9762,-8.9853,-8.9878,-8.9974,-9.0108,-9.0212,-9.0365,-9.0488,-9.0737,-9.0799,-9.094,-9.093,-9.1079,-9.0951,-9.0945,-9.0933,-9.0925,-9.0939,-9.1103,-9.1107,-9.111,-9.1113,0,-8.9538,-8.9554,-8.9686,-8.9827,-8.9936,-9.0048,-9.0155,-9.0229,-9.0269,-9.0377,-9.0536,-9.0632,-9.0821,-9.0973,-9.1115,-9.1176,-9.1153,-9.1153,-9.1193,-9.1193,-9.1175,-9.1187,-9.0746,-9.1142,-9.1139,-9.1137,-9.1136,-9.1135,-8.9775,-8.9894,-9.0002,-9.015,-9.0233,-9.0334,-9.0453,-9.0509,-9.0642,-9.0799,-9.0805,-9.0978,-9.1083,-9.1272,-9.1342,-9.1477,-9.1431,-9.1489,-9.1504,-9.1518,-9.153,-9.1153,-9.1502,-9.1501,-9.1501,-9.15,-9.15,0,-9.011,-9.0177,-9.0314,-9.0465,-9.0582,-9.0549,-9.0666,-9.0766,-9.0919,-9.1019,-9.1142,-9.1325,-9.1472,-9.1546,-9.1692,-9.1786,-9.1779,-9.1824,-9.1817,-9.1832,-9.1562,-9.1513,-9.1827,-9.1827,-9.1827,-9.1827,-9.1827,-9.1827,-9.0298,-9.0499,-9.0527,-9.077,-9.0836,-9.1006,-9.1075,-9.1168,-9.1249,-9.1454,-9.1577,-9.1625,-9.1715,-9.1868,-9.2002,-9.202,-9.2075,-9.2126,-9.2138,-9.1884,-9.1851,-9.1819,-9.1774,-9.2137,-9.2138,-9.2397,-9.24,-9.2402]}]]